Time,TemperatureF,DewpointF,PressureIn,WindDirection,WindDirectionDegrees,WindSpeedMPH,WindSpeedGustMPH,Humidity,HourlyPrecipIn,Conditions,Clouds,dailyrainin,SoftwareType,DateUTC
2013-02-23 00:00:00,26.0,25.3,30.07,WNW,292,0.0,6.0,97,0.00,,,-99.99,Weather View 32 v60,2013-02-23 06:00:00,
2013-02-23 00:30:00,26.0,25.3,30.07,NW,315,0.0,6.0,97,0.00,,,-99.99,Weather View 32 v60,2013-02-23 06:30:00,
2013-02-23 01:00:00,26.0,25.0,30.06,NNW,338,0.0,6.0,96,0.00,,,-99.99,Weather View 32 v60,2013-02-23 07:00:00,
2013-02-23 01:30:00,26.0,25.0,30.07,NW,315,0.0,8.0,96,0.00,,,-99.99,Weather View 32 v60,2013-02-23 07:30:00,
2013-02-23 02:00:00,25.0,24.0,30.07,West,270,0.0,8.0,96,0.00,,,-99.99,Weather View 32 v60,2013-02-23 08:00:00,
2013-02-23 02:30:00,25.0,23.8,30.06,NNW,338,0.0,1.0,95,0.00,,,-99.99,Weather View 32 v60,2013-02-23 08:30:00,
2013-02-23 03:00:00,25.0,23.8,30.06,WNW,292,0.0,7.0,95,0.00,,,-99.99,Weather View 32 v60,2013-02-23 09:00:00,
2013-02-23 03:30:00,25.0,24.0,30.06,NW,315,0.0,7.0,96,0.00,,,-99.99,Weather View 32 v60,2013-02-23 09:30:00,
2013-02-23 04:00:00,25.0,24.0,30.07,West,270,0.0,7.0,96,0.00,,,-99.99,Weather View 32 v60,2013-02-23 10:00:00,
2013-02-23 04:30:00,25.0,23.8,30.07,NW,315,0.0,9.0,95,0.00,,,-99.99,Weather View 32 v60,2013-02-23 10:30:00,
2013-02-23 05:00:00,25.0,24.0,30.07,NNW,338,0.0,9.0,96,0.00,,,-99.99,Weather View 32 v60,2013-02-23 11:00:00,
2013-02-23 05:30:00,24.0,22.8,30.07,WNW,292,0.0,5.0,95,0.00,,,-99.99,Weather View 32 v60,2013-02-23 11:30:00,
2013-02-23 06:00:00,24.0,23.0,30.08,NW,315,0.0,6.0,96,0.00,,,-99.99,Weather View 32 v60,2013-02-23 12:00:00,
2013-02-23 06:30:00,24.0,23.0,30.09,NW,315,0.0,6.0,96,0.00,,,-99.99,Weather View 32 v60,2013-02-23 12:30:00,
2013-02-23 07:00:00,24.0,23.0,30.10,NNW,338,0.0,8.0,96,0.00,,,-99.99,Weather View 32 v60,2013-02-23 13:00:00,
2013-02-23 07:30:00,24.0,23.0,30.09,WNW,292,0.0,8.0,96,0.00,,,-99.99,Weather View 32 v60,2013-02-23 13:30:00,
2013-02-23 08:00:00,24.0,23.0,30.09,NNW,338,0.0,6.0,96,0.00,,,-99.99,Weather View 32 v60,2013-02-23 14:00:00,
2013-02-23 08:30:00,25.0,24.0,30.09,West,270,0.0,10.0,96,0.00,,,-99.99,Weather View 32 v60,2013-02-23 14:30:00,
2013-02-23 09:00:00,25.0,23.8,30.09,NW,315,0.0,10.0,95,0.00,,,-99.99,Weather View 32 v60,2013-02-23 15:00:00,
2013-02-23 09:30:00,26.0,24.5,30.09,WNW,292,0.0,10.0,94,0.00,,,-99.99,Weather View 32 v60,2013-02-23 15:30:00,
2013-02-23 10:00:00,28.0,26.0,30.09,NNE,22,0.0,11.0,92,0.00,,,-99.99,Weather View 32 v60,2013-02-23 16:00:00,
2013-02-23 10:30:00,28.0,25.2,30.09,North,0,0.0,11.0,89,0.00,,,-99.99,Weather View 32 v60,2013-02-23 16:30:00,
2013-02-23 11:00:00,29.0,25.3,30.08,WNW,292,0.0,10.0,86,0.00,,,-99.99,Weather View 32 v60,2013-02-23 17:00:00,
2013-02-23 11:30:00,30.0,25.5,30.08,NNE,22,0.0,11.0,83,0.00,,,-99.99,Weather View 32 v60,2013-02-23 17:30:00,
2013-02-23 12:00:00,32.0,25.9,30.08,NW,315,0.0,11.0,78,0.00,,,-99.99,Weather View 32 v60,2013-02-23 18:00:00,
2013-02-23 12:30:00,30.0,23.0,30.08,West,270,0.0,9.0,75,0.00,,,-99.99,Weather View 32 v60,2013-02-23 18:30:00,
2013-02-23 13:00:00,30.0,22.7,30.07,WNW,292,0.0,9.0,74,0.00,,,-99.99,Weather View 32 v60,2013-02-23 19:00:00,
2013-02-23 13:30:00,31.0,23.4,30.07,NNW,338,0.0,8.0,73,0.00,,,-99.99,Weather View 32 v60,2013-02-23 19:30:00,
2013-02-23 14:00:00,30.0,22.1,30.07,WSW,248,0.0,8.0,72,0.00,,,-99.99,Weather View 32 v60,2013-02-23 20:00:00,
2013-02-23 14:30:00,30.0,22.1,30.07,NNE,22,0.0,10.0,72,0.00,,,-99.99,Weather View 32 v60,2013-02-23 20:30:00,
2013-02-23 15:00:00,30.0,22.1,30.08,NW,315,0.0,11.0,72,0.00,,,-99.99,Weather View 32 v60,2013-02-23 21:00:00,
2013-02-23 15:30:00,30.0,22.4,30.08,WNW,292,0.0,11.0,73,0.00,,,-99.99,Weather View 32 v60,2013-02-23 21:30:00,
2013-02-23 16:00:00,29.0,21.8,30.09,NNW,338,0.0,9.0,74,0.00,,,-99.99,Weather View 32 v60,2013-02-23 22:00:00,
2013-02-23 16:30:00,29.0,21.8,30.09,WNW,292,0.0,9.0,74,0.00,,,-99.99,Weather View 32 v60,2013-02-23 22:30:00,
2013-02-23 17:00:00,29.0,22.1,30.10,NNW,338,0.0,8.0,75,0.00,,,-99.99,Weather View 32 v60,2013-02-23 23:00:00,
2013-02-23 17:30:00,29.0,22.4,30.11,NNW,338,0.0,8.0,76,0.00,,,-99.99,Weather View 32 v60,2013-02-23 23:30:00,
2013-02-23 18:00:00,29.0,22.7,30.12,NW,315,0.0,1.0,77,0.00,,,-99.99,Weather View 32 v60,2013-02-24 00:00:00,
2013-02-23 18:30:00,29.0,22.7,30.13,NW,315,0.0,0.0,77,0.00,,,-99.99,Weather View 32 v60,2013-02-24 00:30:00,
2013-02-23 19:00:00,28.0,22.0,30.13,NNW,338,0.0,0.0,78,0.00,,,-99.99,Weather View 32 v60,2013-02-24 01:00:00,
2013-02-23 19:30:00,28.0,22.3,30.13,NW,315,0.0,1.0,79,0.00,,,-99.99,Weather View 32 v60,2013-02-24 01:30:00,
2013-02-23 20:00:00,27.0,21.9,30.14,NW,315,0.0,1.0,81,0.00,,,-99.99,Weather View 32 v60,2013-02-24 02:00:00,
2013-02-23 20:30:00,25.0,20.6,30.15,North,0,0.0,1.0,83,0.00,,,-99.99,Weather View 32 v60,2013-02-24 02:30:00,
2013-02-23 21:00:00,25.0,20.9,30.15,NNW,338,0.0,1.0,84,0.00,,,-99.99,Weather View 32 v60,2013-02-24 03:00:00,
2013-02-23 21:30:00,25.0,21.4,30.15,North,0,0.0,0.0,86,0.00,,,-99.99,Weather View 32 v60,2013-02-24 03:30:00,
2013-02-23 22:00:00,25.0,21.7,30.15,NNW,338,0.0,0.0,87,0.00,,,-99.99,Weather View 32 v60,2013-02-24 04:00:00,
2013-02-23 22:30:00,25.0,22.0,30.15,NW,315,0.0,0.0,88,0.00,,,-99.99,Weather View 32 v60,2013-02-24 04:30:00,
2013-02-23 23:00:00,25.0,22.0,30.16,North,0,0.0,0.0,88,0.00,,,-99.99,Weather View 32 v60,2013-02-24 05:00:00,
2013-02-23 23:30:00,25.0,22.0,30.17,WNW,292,0.0,0.0,88,0.00,,,-99.99,Weather View 32 v60,2013-02-24 05:30:00,